Weather History for Iowa Falls, IA

Change the Weather History Date:

Sunday, March 11, 2012

  Actual Average Record
Temperature  
Mean Temperature 47 °F -  
Max Temperature 59 °F 43 °F 66 °F (1990)
Min Temperature 35 °F 23 °F -6 °F (1969)
Degree Days  
Heating Degree Days 18    
Moisture  
Dew Point 35 °F    
Average Humidity 62    
Maximum Humidity 95    
Minimum Humidity 33    
Precipitation  
Precipitation 0.36 in - - ()
Sea Level Pressure  
Sea Level Pressure 29.99 in    
Wind  
Wind Speed 12 mph (SSE)    
Max Wind Speed 20 mph    
Max Gust Speed 24 mph    
Visibility 9 miles    
Events Rain    
Averages and records for this station are not official NWS values.
T = Trace of Precipitation, MM = Missing Value Source: NWS Daily Summary

Daily Weather History Graph

Daily Weather History Graph

Search for Another Location

Airport:

Trip Planner

Search our weather history database for the weather conditions in past years. The results will help you decide how hot, cold, wet, or windy it might be!

Date:

Astronomy

Mar. 11, 2012 Rise Set
Actual Time 7:31 AM CDT 7:15 PM CDT
Civil Twilight 7:03 AM CDT 7:43 PM CDT
Nautical Twilight 6:30 AM CDT 8:16 PM CDT
Astronomical Twilight 5:57 AM CDT 8:49 PM CDT
Moon 11:47 PM CDT (3/11) 9:00 AM CDT (3/11)
Length of Visible Light 12h 40m
Length of Day
11h 44m
Waning Gibbous, 85% of the Moon is Illuminated
Mar 11
Waning Gibbous
Mar 14
Last Quarter
Mar 22
New
Mar 30
First Quarter
Apr 6
Full

Hourly Weather History & Observations

Time (CDT) Temp. Windchill Dew Point Humidity Pressure Visibility Wind Dir Wind Speed Gust Speed Precip Events Conditions
12:15 AM 41.0 °F 34.7 °F 29.8 °F 64% 30.08 in 10.0 mi South 10.4 mph - N/A   Clear
12:35 AM 40.5 °F 33.2 °F 30.0 °F 66% 30.08 in 10.0 mi South 12.7 mph - N/A   Clear
12:55 AM 41.9 °F 35.0 °F 30.2 °F 63% 30.08 in 10.0 mi South 12.7 mph - N/A   Clear
1:15 AM 41.4 °F 34.7 °F 30.6 °F 65% 30.08 in 10.0 mi South 11.5 mph - N/A   Clear
1:35 AM 40.6 °F 33.4 °F 30.6 °F 67% 30.08 in 10.0 mi South 12.7 mph - N/A   Clear
1:55 AM 41.0 °F 34.7 °F 30.7 °F 67% 30.08 in 10.0 mi South 10.4 mph - N/A   Clear
3:15 AM 40.1 °F 32.7 °F 30.7 °F 69% 30.07 in 10.0 mi South 12.7 mph - N/A   Clear
3:35 AM 40.3 °F 32.6 °F 31.1 °F 70% 30.08 in 10.0 mi South 13.8 mph - N/A   Clear
4:15 AM 40.1 °F 32.4 °F 30.7 °F 69% 30.07 in 10.0 mi South 13.8 mph - N/A   Clear
4:35 AM 39.6 °F 32.5 °F 30.6 °F 70% 30.06 in 10.0 mi South 11.5 mph - N/A   Clear
4:55 AM 38.3 °F 31.4 °F 30.2 °F 73% 30.06 in 10.0 mi South 10.4 mph - N/A   Clear
5:15 AM 38.3 °F 30.9 °F 30.2 °F 73% 30.06 in 10.0 mi South 11.5 mph - N/A   Clear
5:35 AM 37.4 °F 29.8 °F 29.8 °F 74% 30.07 in 10.0 mi South 11.5 mph - N/A   Clear
5:55 AM 36.9 °F 29.6 °F 29.8 °F 76% 30.08 in 10.0 mi South 10.4 mph - N/A   Clear
6:15 AM 37.4 °F 30.3 °F 29.8 °F 74% 30.09 in 10.0 mi SSW 10.4 mph - N/A   Clear
7:35 AM 35.2 °F 31.2 °F 28.9 °F 78% 30.09 in 10.0 mi SE 4.6 mph - N/A   Clear
7:55 AM 35.1 °F 30.1 °F 29.3 °F 80% 30.09 in 10.0 mi SE 5.8 mph - N/A   Clear
8:15 AM 37.6 °F 33.1 °F 30.6 °F 76% 30.09 in 10.0 mi SE 5.8 mph - N/A   Clear
8:35 AM 39.0 °F 34.8 °F 31.5 °F 74% 30.09 in 10.0 mi SE 5.8 mph - N/A   Clear
8:55 AM 41.2 °F 36.6 °F 31.3 °F 68% 30.09 in 10.0 mi SE 6.9 mph - N/A   Clear
9:15 AM 41.2 °F 36.6 °F 31.5 °F 68% 30.09 in 10.0 mi SSE 6.9 mph - N/A   Clear
9:35 AM 43.9 °F 40.5 °F 31.8 °F 63% 30.09 in 10.0 mi SE 5.8 mph - N/A   Clear
9:55 AM 44.8 °F 39.9 °F 32.0 °F 61% 30.08 in 10.0 mi SSE 9.2 mph - N/A   Clear
10:15 AM 46.8 °F - 32.0 °F 57% 30.09 in 10.0 mi SSE 11.5 mph - N/A   Clear
10:35 AM 48.2 °F - 31.5 °F 52% 30.08 in 10.0 mi SSE 10.4 mph - N/A   Clear
10:55 AM 50.0 °F - 31.6 °F 49% 30.08 in 10.0 mi South 12.7 mph - N/A   Clear
11:15 AM 51.8 °F - 31.8 °F 47% 30.08 in 10.0 mi South 12.7 mph - N/A   Clear
11:35 AM 53.6 °F - 31.5 °F 43% 30.07 in 10.0 mi South 11.5 mph - N/A   Clear
11:55 AM 54.9 °F - 31.5 °F 41% 30.06 in 10.0 mi SSE 10.4 mph - N/A   Clear
12:35 PM 55.4 °F - 31.3 °F 40% 30.06 in 10.0 mi SSE 9.2 mph - N/A   Clear
12:55 PM 57.0 °F - 32.0 °F 39% 30.06 in 10.0 mi SSE 11.5 mph - N/A   Clear
1:35 PM 59.0 °F - 30.7 °F 34% 30.04 in 10.0 mi SSE 13.8 mph - N/A   Clear
1:55 PM 58.1 °F - 30.9 °F 36% 30.02 in 10.0 mi SE 11.5 mph - N/A   Scattered Clouds
2:15 PM 59.0 °F - 30.6 °F 34% 30.01 in 10.0 mi SE 13.8 mph - N/A   Scattered Clouds
2:35 PM 59.0 °F - 31.3 °F 35% 29.99 in 10.0 mi SE 13.8 mph - N/A   Mostly Cloudy
2:55 PM 59.5 °F - 30.6 °F 33% 29.97 in 10.0 mi SE 17.3 mph 21.9 mph N/A   Overcast
3:15 PM 58.8 °F - 29.5 °F 33% 29.95 in 10.0 mi SE 18.4 mph 24.2 mph N/A   Overcast
3:35 PM 59.0 °F - 30.9 °F 35% 29.94 in 10.0 mi SSE 15.0 mph - N/A   Overcast
3:55 PM 57.6 °F - 29.1 °F 34% 29.94 in 10.0 mi SSE 16.1 mph - N/A   Overcast
4:15 PM 57.2 °F - 29.3 °F 35% 29.94 in 10.0 mi SSE 12.7 mph - N/A   Overcast
4:35 PM 56.3 °F - 31.1 °F 38% 29.93 in 10.0 mi SSE 10.4 mph - N/A   Overcast
4:55 PM 56.3 °F - 31.5 °F 39% 29.92 in 10.0 mi SE 10.4 mph - N/A   Overcast
5:15 PM 56.3 °F - 31.8 °F 39% 29.91 in 10.0 mi SE 10.4 mph - N/A   Overcast
5:35 PM 56.3 °F - 32.0 °F 40% 29.91 in 10.0 mi SE 9.2 mph - N/A   Overcast
6:15 PM 56.7 °F - 35.6 °F 45% 29.89 in 10.0 mi SE 19.6 mph 23.0 mph N/A   Overcast
6:35 PM 56.3 °F - 41.4 °F 57% 29.88 in 10.0 mi SSE 17.3 mph - N/A   Overcast
7:15 PM 55.2 °F - 43.7 °F 65% 29.87 in 10.0 mi SE 15.0 mph - N/A   Overcast
7:35 PM 53.1 °F - 45.5 °F 75% 29.88 in 10.0 mi SSE 15.0 mph 23.0 mph N/A   Light Drizzle
7:55 PM 52.5 °F - 45.5 °F 77% 29.86 in 10.0 mi SE 12.7 mph 21.9 mph N/A   Overcast
8:55 PM 52.0 °F - 48.2 °F 87% 29.82 in 10.0 mi SE 12.7 mph - N/A Rain Light Rain
9:15 PM 51.1 °F - 48.4 °F 90% 29.81 in 5.0 mi ESE 13.8 mph - 0.03 in Rain Rain
9:35 PM 50.9 °F - 48.7 °F 92% 29.81 in 5.0 mi SE 13.8 mph 18.4 mph 0.08 in Rain Rain
9:55 PM 51.1 °F - 49.1 °F 93% 29.80 in 5.0 mi SE 13.8 mph - 0.16 in Rain Rain
10:35 PM 51.1 °F - 49.3 °F 94% 29.79 in 5.0 mi SE 13.8 mph - 0.11 in Rain Rain
10:55 PM 51.1 °F - 49.5 °F 94% 29.79 in 7.0 mi SE 15.0 mph - 0.17 in Rain Rain
11:15 PM 51.1 °F - 49.5 °F 94% 29.79 in 5.0 mi SSE 16.1 mph - 0.02 in Rain Light Rain
11:35 PM 51.1 °F - 49.5 °F 94% 29.78 in 10.0 mi SSE 15.0 mph - 0.02 in Rain Light Rain
12:35 AM 50.9 °F - 49.1 °F 94% 29.76 in 4.0 mi SSE 13.8 mph - N/A Rain Rain
12:55 AM 50.5 °F - 49.1 °F 95% 29.75 in 4.0 mi SSE 13.8 mph - 0.01 in   Drizzle